| time (UTC) | temp F | wind direction | speed MPH | gust MPH | rain 1hr in | rain 24hr in | rain mn in | humidity % | barometer mb |
| 20260504190325 | 46 | 66 | 1.0 | 5.0 | 0.00 | 0.00 | 0.00 | 72 | 1010.1 |
| 20260504185425 | 46 | 61 | 2.0 | 6.0 | 0.00 | 0.00 | 0.00 | 73 | 1010.1 |
| 20260504184525 | 45 | 49 | 2.0 | 5.0 | 0.00 | 0.00 | 0.00 | 75 | 1010.2 |
| 20260504183625 | 44 | 0 | 0.0 | 3.0 | 0.00 | 0.00 | 0.00 | 77 | 1010.4 |
| 20260504182725 | 43 | 0 | 0.0 | 4.0 | 0.00 | 0.00 | 0.00 | 78 | 1010.4 |
| 20260504180925 | 42 | 0 | 0.0 | 1.0 | 0.00 | 0.00 | 0.00 | 80 | 1010.8 |
| 20260504180025 | 41 | 0 | 0.0 | 0.0 | 0.00 | 0.00 | 0.00 | 78 | 1011.0 |
| 20260504174225 | 40 | 0 | 0.0 | 0.0 | 0.00 | 0.00 | 0.00 | 78 | 1011.2 |
| 20260504173325 | 40 | 0 | 0.0 | 0.0 | 0.00 | 0.00 | 0.00 | 80 | 1011.2 |
| 20260504172425 | 39 | 0 | 0.0 | 0.0 | 0.00 | 0.00 | 0.00 | 79 | 1011.3 |
| 20260504171525 | 39 | 0 | 0.0 | 2.0 | 0.00 | 0.00 | 0.00 | 79 | 1011.4 |
| 20260504170625 | 38 | 0 | 0.0 | 0.0 | 0.00 | 0.00 | 0.00 | 80 | 1011.4 |
| 20260504160325 | 35 | 0 | 0.0 | 0.0 | 0.00 | 0.00 | 0.00 | 85 | 1011.7 |
| 20260504150925 | 34 | 0 | 0.0 | 1.0 | 0.00 | 0.00 | 0.00 | 88 | 1011.8 |
| 20260504140625 | 33 | 0 | 0.0 | 0.0 | 0.00 | 0.00 | 0.00 | 90 | 1011.8 |
| 20260504130325 | 32 | 0 | 0.0 | 0.0 | 0.00 | 0.00 | 0.00 | 89 | 1011.8 |
| 20260504110625 | 34 | 0 | 0.0 | 0.0 | 0.00 | 0.00 | 0.00 | 87 | 1012.0 |
| 20260504100325 | 34 | 0 | 0.0 | 2.0 | 0.00 | 0.00 | 0.00 | 84 | 1012.2 |
| 20260504081525 | 37 | 0 | 0.0 | 0.0 | 0.00 | 0.00 | 0.00 | 80 | 1012.5 |
| 20260504080625 | 37 | 0 | 0.0 | 0.0 | 0.00 | 0.00 | 0.00 | 79 | 1012.5 |
| 20260504070325 | 39 | 0 | 0.0 | 0.0 | 0.00 | 0.00 | 0.00 | 78 | 1012.7 |
| 20260504050625 | 45 | 0 | 0.0 | 1.0 | 0.00 | 0.00 | 0.00 | 67 | 1012.7 |
| 20260504045725 | 45 | 0 | 0.0 | 1.0 | 0.00 | 0.00 | 0.00 | 66 | 1012.8 |
| 20260504044825 | 45 | 0 | 0.0 | 0.0 | 0.00 | 0.00 | 0.00 | 61 | 1012.9 |
| 20260504043925 | 46 | 0 | 0.0 | 0.0 | 0.00 | 0.00 | 0.00 | 59 | 1013.0 |
| 20260504043026 | 46 | 0 | 0.0 | 0.0 | 0.00 | 0.00 | 0.00 | 57 | 1013.0 |
| 20260504042125 | 47 | 0 | 0.0 | 2.0 | 0.00 | 0.00 | 0.00 | 57 | 1013.0 |
| 20260504041226 | 47 | 0 | 0.0 | 0.0 | 0.00 | 0.00 | 0.00 | 57 | 1013.0 |
| 20260504040325 | 48 | 0 | 0.0 | 4.0 | 0.00 | 0.00 | 0.00 | 56 | 1013.0 |
| 20260504034525 | 48 | 0 | 0.0 | 3.0 | 0.00 | 0.00 | 0.00 | 55 | 1013.2 |
| 20260504032725 | 49 | 0 | 0.0 | 4.0 | 0.00 | 0.00 | 0.00 | 56 | 1013.2 |
| 20260504031826 | 49 | 284 | 1.0 | 4.0 | 0.00 | 0.00 | 0.00 | 54 | 1013.3 |
| 20260504030925 | 49 | 283 | 1.0 | 4.0 | 0.00 | 0.00 | 0.00 | 55 | 1013.3 |
| 20260504030025 | 50 | 281 | 1.0 | 4.0 | 0.00 | 0.00 | 0.00 | 52 | 1013.3 |
| 20260504025126 | 50 | 287 | 1.0 | 6.0 | 0.00 | 0.00 | 0.00 | 52 | 1013.3 |
| 20260504023325 | 50 | 268 | 3.0 | 8.0 | 0.00 | 0.00 | 0.00 | 51 | 1013.3 |
| 20260504022425 | 50 | 267 | 1.0 | 6.0 | 0.00 | 0.00 | 0.00 | 53 | 1013.5 |
| 20260504021526 | 50 | 280 | 1.0 | 6.0 | 0.00 | 0.00 | 0.00 | 52 | 1013.5 |
| 20260504020625 | 50 | 0 | 0.0 | 4.0 | 0.00 | 0.00 | 0.00 | 52 | 1013.5 |
| 20260504015727 | 50 | 253 | 1.0 | 7.0 | 0.00 | 0.00 | 0.00 | 51 | 1013.5 |
| 20260504014825 | 50 | 0 | 0.0 | 2.0 | 0.00 | 0.00 | 0.00 | 50 | 1013.5 |
| 20260504013026 | 50 | 322 | 1.0 | 5.0 | 0.00 | 0.00 | 0.00 | 52 | 1013.7 |
| 20260504011226 | 50 | 0 | 0.0 | 4.0 | 0.00 | 0.00 | 0.00 | 49 | 1013.9 |
| 20260504010326 | 50 | 273 | 1.0 | 4.0 | 0.00 | 0.00 | 0.00 | 51 | 1014.0 |
| 20260504005425 | 51 | 269 | 1.0 | 5.0 | 0.00 | 0.00 | 0.00 | 50 | 1014.0 |
| 20260504004525 | 51 | 264 | 1.0 | 5.0 | 0.00 | 0.00 | 0.00 | 50 | 1014.0 |
| 20260504002725 | 51 | 261 | 2.0 | 10.0 | 0.00 | 0.00 | 0.00 | 51 | 1014.1 |
| 20260504000927 | 50 | 256 | 1.0 | 7.0 | 0.00 | 0.00 | 0.00 | 50 | 1014.3 |
| 20260503235126 | 49 | 274 | 1.0 | 4.0 | 0.00 | 0.00 | 0.00 | 51 | 1014.4 |
| 20260503234226 | 50 | 0 | 0.0 | 3.0 | 0.00 | 0.00 | 0.00 | 53 | 1014.5 |
| 20260503233325 | 50 | 0 | 0.0 | 3.0 | 0.00 | 0.00 | 0.00 | 52 | 1014.5 |
| 20260503232425 | 51 | 247 | 2.0 | 7.0 | 0.00 | 0.00 | 0.00 | 48 | 1014.7 |
| 20260503231526 | 51 | 202 | 1.0 | 7.0 | 0.00 | 0.00 | 0.00 | 52 | 1014.7 |
| 20260503230625 | 51 | 223 | 3.0 | 9.0 | 0.00 | 0.00 | 0.00 | 51 | 1014.7 |
| 20260503223926 | 51 | 0 | 0.0 | 4.0 | 0.00 | 0.00 | 0.00 | 51 | 1015.0 |
| 20260503223026 | 51 | 261 | 2.0 | 11.0 | 0.00 | 0.00 | 0.00 | 48 | 1015.1 |
| 20260503222125 | 53 | 261 | 2.0 | 10.0 | 0.00 | 0.00 | 0.00 | 50 | 1015.1 |
| 20260503221225 | 53 | 249 | 1.0 | 5.0 | 0.00 | 0.00 | 0.00 | 46 | 1015.1 |
| 20260503215425 | 53 | 253 | 1.0 | 9.0 | 0.00 | 0.00 | 0.00 | 47 | 1015.3 |
| 20260503214525 | 52 | 224 | 3.0 | 11.0 | 0.00 | 0.00 | 0.00 | 48 | 1015.4 |
| 20260503213625 | 52 | 221 | 1.0 | 11.0 | 0.00 | 0.00 | 0.00 | 48 | 1015.2 |
| 20260503212725 | 52 | 281 | 1.0 | 5.0 | 0.00 | 0.00 | 0.00 | 49 | 1015.4 |
| 20260503211825 | 52 | 269 | 1.0 | 6.0 | 0.00 | 0.00 | 0.00 | 49 | 1015.4 |
| 20260503210926 | 53 | 264 | 1.0 | 7.0 | 0.00 | 0.00 | 0.00 | 49 | 1015.4 |
| 20260503210025 | 52 | 239 | 1.0 | 6.0 | 0.00 | 0.00 | 0.00 | 48 | 1015.4 |
| 20260503205126 | 51 | 254 | 3.0 | 10.0 | 0.00 | 0.00 | 0.00 | 51 | 1015.5 |
| 20260503203326 | 50 | 252 | 2.0 | 9.0 | 0.00 | 0.00 | 0.00 | 53 | 1015.4 |
| 20260503202426 | 49 | 270 | 1.0 | 6.0 | 0.00 | 0.00 | 0.00 | 52 | 1015.4 |
| 20260503201526 | 49 | 267 | 1.0 | 6.0 | 0.00 | 0.00 | 0.00 | 54 | 1015.4 |
| 20260503200626 | 50 | 245 | 1.0 | 6.0 | 0.00 | 0.00 | 0.00 | 54 | 1015.4 |
| 20260503195726 | 50 | 250 | 2.0 | 7.0 | 0.00 | 0.00 | 0.00 | 53 | 1015.3 |
| 20260503194825 | 50 | 0 | 0.0 | 5.0 | 0.00 | 0.00 | 0.00 | 53 | 1015.3 |
| 20260503193925 | 49 | 215 | 1.0 | 6.0 | 0.00 | 0.00 | 0.00 | 53 | 1015.3 |
| 20260503192126 | 48 | 231 | 3.0 | 7.0 | 0.00 | 0.00 | 0.00 | 55 | 1015.4 |
| 20260503191226 | 47 | 226 | 2.0 | 7.0 | 0.00 | 0.00 | 0.00 | 56 | 1015.4 |